Location: Proctor
(47.8934°N, 114.3048°W)
Time: 21:08:50
(UTC+00:00)

AO-92 - Pass Details

Date: 30 June 2022
Orbit: 469 x 481 km, 97.4° (Epoch: 13 August)

Event Time Altitude Azimuth Distance (km) Brightness Sun altitude
Exits shadow 04:29:51 - 114° (ESE) 1,856 ? -7.0°
Reaches altitude 10° 04:30:31 10° 107° (ESE) 1,653 ? -7.1°
Maximum altitude 04:32:53 17° 64° (ENE) 1,275 ? -7.4°
Drops below altitude 10° 04:35:18 10° 22° (NNE) 1,668 ? -7.7°
Sets 04:37:52 0° 2° (N) 2,557 ? -7.9°
